Location: Rosenheim
(47.8408°N, 12.2113°E)
Time: 10:07:04
(UTC+01:00)

ISS - Pass Details

Date: 12 January 2018
Orbit: 402 x 407 km, 51.6° (Epoch: 21 January)

Event Time Altitude Azimuth Distance (km) Brightness Sun altitude
Exits shadow 06:23:42 34° 267° (W) 697 -3.2 -15.2°
Maximum altitude 06:24:47 51° 211° (SSW) 517 -3.5 -15.0°
Drops below altitude 10° 06:27:59 10° 134° (SE) 1,463 0.0 -14.5°
Sets 06:30:05 0° 129° (SE) 2,321 1.4 -14.1°
